Location: Newark
(20.0000°S, 47.0000°E)
Time: 13:39:33
(UTC+00:00)

N. Korean satellite - Pass Details

Date: 22 August 2020
Orbit: 455 x 503 km, 97.2° (Epoch: 20 September)

Event Time Altitude Azimuth Distance (km) Brightness Sun altitude
Rises 01:36:51 0° 22° (NNE) 2,581 10.6 -22.1°
Reaches altitude 10° 01:38:58 10° 27° (NNE) 1,706 9.7 -21.6°
Maximum altitude 01:42:32 49° 103° (ESE) 657 7.5 -20.8°
Drops below altitude 10° 01:46:08 10° 178° (S) 1,722 9.3 -20.0°
Sets 01:48:16 0° 183° (S) 2,609 10.2 -19.5°
